Location: Janeiro
(34.9957°N, 76.7652°W)
Time: 08:39:14
(UTC+00:00)

USA 81 - Pass Details

Date: 14 December 2019
Orbit: 785 x 788 km, 85.0° (Epoch: 06 January)

Event Time Altitude Azimuth Distance (km) Brightness Sun altitude
Rises 23:29:29 0° 168° (SSE) 3,263 7.3 -18.5°
Reaches altitude 10° 23:31:54 10° 163° (SSE) 2,338 6.5 -19.0°
Maximum altitude 23:36:56 49° 89° (E) 1,006 4.2 -19.9°
Enters shadow 23:38:56 32° 35° (NE) 1,315 4.8 -20.3°
